Flag for Germany Weather past 2 weeks in Melle, Lower Saxony, Germany

46 °F

Partly sunny.

Feels Like: 40 °F
Forecast: 42 / 52 °F
Wind: 15 mph from Southwest

Location: Muenster / Osnabrueck

Current Time: Nov 29, 2015 at 8:57:25 AM

Latest Report: Nov 29, 2015 at 8:20 AM

Visibility: N/A

Pressure: 29.71 "Hg

Humidity: 93%

Dew point: 45 °F

Location of MelleLocation

Historic Weather in Melle — Graph


Melle temperature yesterday

Maximum temperature yesterday: 45 °F (at 10:50 AM)
Minimum temperature yesterday: 37 °F (at 4:20 AM)
Average temperature yesterday: 42 °F

Past Weeks' High & Low Weather Summary

High61 °F (Nov 17, 9:50 PM)100% (Nov 15, 4:50 AM)30.21 "Hg (Nov 15, 4:50 AM)
Low28 °F (Nov 27, 12:20 AM)57% (Nov 24, 12:20 PM)29.36 "Hg (Nov 21, 3:50 AM)
Average45 °F85%29.82 "Hg
* Reported Nov 14 7:20 AM — Nov 29 7:50 AM, Melle, Weather by CustomWeather, © 2015

Note: Actual official high and low records may vary slightly from our data, if they occured in-between our weather recording intervals... More about our weather records


Melle weather history for previous 24 hours

Time TempWeatherWind HumidityBarometerVisibility
7:50 AM
Sun, Nov 29
46 °FSprinkles. Partly cloudy.14 mph93%29.71 "Hg6 mi
7:20 AM46 °FPartly cloudy.16 mph87%29.71 "HgN/A
6:20 AM46 °FLight rain. Passing clouds.15 mph87%29.71 "HgN/A
5:50 AM46 °FLight rain. Partly cloudy.14 mph87%29.71 "HgN/A
5:20 AM45 °FLight rain. Partly cloudy.13 mph93%29.71 "HgN/A
4:50 AM45 °FLight rain. Mostly cloudy.10 mph93%29.71 "HgN/A
4:20 AM45 °FLight rain. Partly cloudy.18 mph87%29.71 "HgN/A
3:50 AM45 °FPartly cloudy.17 mph87%29.71 "HgN/A
3:20 AM46 °FMostly cloudy.21 mph82%29.71 "HgN/A
2:50 AM45 °FOvercast.22 mph87%29.71 "HgN/A
2:20 AM45 °FLight rain. Overcast.23 mph87%29.71 "HgN/A
1:50 AM45 °FLight rain. Overcast.21 mph81%29.71 "HgN/A
1:20 AM43 °FLight rain. Overcast.21 mph87%29.71 "HgN/A
12:20 AM43 °FLight rain. Overcast.20 mph87%29.71 "HgN/A
11:50 PM
Sat, Nov 28
43 °FLight rain. Overcast.16 mph81%29.74 "HgN/A
11:20 PM45 °FPassing clouds.18 mph76%29.74 "HgN/A
10:50 PM43 °FPassing clouds.20 mph81%29.77 "HgN/A
10:20 PM43 °FLight rain. Passing clouds.17 mph81%29.80 "HgN/A
9:20 PM43 °FLight rain. Mostly cloudy.18 mph81%29.83 "HgN/A
8:50 PM43 °FLight rain. Mostly cloudy.16 mph76%29.83 "HgN/A
8:20 PM43 °FLight rain. Mostly cloudy.16 mph71%29.86 "HgN/A
7:50 PM43 °FMostly cloudy.13 mph71%29.86 "HgN/A
7:20 PM43 °FPassing clouds.14 mph71%29.86 "HgN/A
6:50 PM43 °FPassing clouds.13 mph71%29.86 "HgN/A
6:20 PM43 °FPassing clouds.14 mph71%29.89 "HgN/A
5:50 PM43 °FPassing clouds.15 mph71%29.89 "HgN/A
5:20 PM43 °FPartly cloudy.13 mph71%29.89 "HgN/A
4:50 PM43 °FPassing clouds.12 mph71%29.89 "HgN/A
4:20 PM43 °FScattered clouds.12 mph71%29.89 "HgN/A
3:50 PM43 °FPassing clouds.12 mph71%29.89 "HgN/A
3:20 PM45 °FPassing clouds.13 mph71%29.89 "HgN/A
2:50 PM45 °FScattered clouds.14 mph71%29.89 "HgN/A
2:20 PM45 °FPassing clouds.18 mph71%29.89 "HgN/A
1:50 PM45 °FScattered clouds.18 mph71%29.89 "HgN/A
1:20 PM45 °FPassing clouds.21 mph71%29.86 "HgN/A
12:50 PM45 °FPassing clouds.20 mph71%29.86 "HgN/A
12:20 PM45 °FPassing clouds.18 mph71%29.86 "HgN/A
11:50 AM45 °FPassing clouds.17 mph76%29.83 "HgN/A
11:20 AM45 °FPassing clouds.16 mph76%29.83 "HgN/A
10:50 AM45 °FPassing clouds.15 mph76%29.83 "HgN/A
10:20 AM43 °FPassing clouds.15 mph87%29.80 "HgN/A
9:50 AM41 °FPassing clouds.14 mph93%29.80 "HgN/A
9:20 AM41 °FScattered clouds.13 mph93%29.80 "HgN/A
8:50 AM41 °FPartly sunny.12 mph93%29.77 "HgN/A
Weather by CustomWeather, © 2015

See weather overviewHow to use our weather pages